{"data":{"norad_id":64354,"intl_designator":"2025-126L","name":"STARLINK-34473","alt_names":[],"object_type":"PAYLOAD","status":"ACTIVE","operator":null,"country":"US","launch_date":"2025-06-13","launch_site_code":"AFWTR","launch_vehicle":null,"mission":null,"orbit_class":"UNKNOWN","rcs_meters":null,"size_class":null,"mass_kg":null,"dimensions":null,"purposes":["comms"],"wikipedia_slug":null,"has_3d_model":false,"image_url":null,"decayed_at":null,"tle_current":{"epoch":"2026-09-20T23:12:39.419424Z","epoch_age_seconds":94253,"freshness":"FRESH","line1":"1 64354U 25126L   26263.96712291  .00209060  00000+0  69300-2 0  9990","line2":"2 64354  70.0037 259.6596 0005617 283.7615  76.2935 15.30252517 69990","mean_motion":15.30252517,"eccentricity":0.0005617,"inclination_deg":70.0037,"raan_deg":259.6596,"arg_perigee_deg":283.7615,"mean_anomaly_deg":76.2935,"bstar":0.00693,"rev_number":6999,"period_min":94.102116088857,"perigee_km":471.20882782633,"apogee_km":478.90770738996,"semimajor_km":6853.1952676081,"source":"CELESTRAK","updated_at":"2026-09-21T09:00:35.317879Z"}}}